Погода в Сырте

Россия / Оренбургская область     51°52′20″N   54°31′27″E
темп.,
°C
ветер,
м/с
пор.,
м/с
влажн.,
%
обл.,
%
осадки,
мм/ч
давл.,
гПа
погр.,
м
16 июня, ср
ср1623:00+23ю124179 0.0 101211
02:00+23всв333990 0.0 101230
05:00+21вюв2239100 0.0 101218
08:00+23ю2946100 0.0 1013313
11:00+27в5541100 0.0 1012242
14:00+31ююз6929100 0.0 10121396
17:00+32юз51129100 0.0 10103021
20:00+28зсз475011 0.0 1009143
17 июня, чт
чт1723:00+24с2358100 0.0 101035
02:00+24з3457100 0.0 101060
05:00+20зсз35715 0.3 101080
08:00+23зсз47675 0.0 1010320
11:00+26з56541 0.0 10101149
14:00+29зсз454515 0.0 10102144
17:00+28сз775142 0.0 10101381
20:00+22с812710 0.1 1012719
18 июня, пт
пт1823:00+19с5106859 0.1 1015496
02:00+16с511670 0.0 1016365
05:00+14с511700 0.0 1017293
08:00+17с610595 0.0 1018539
11:00+21с79390 0.0 10191820
14:00+23с78360 0.0 10192161
17:00+23с78373 0.0 10192323
20:00+19ссв710490 0.0 10211207
19 июня, сб
сб1923:00+16ссв612612 0.0 1023488
02:00+14ссв613714 0.0 1024400
05:00+13ссв4117396 0.0 1025267
08:00+16св5864100 0.0 1027413
11:00+20ссв44460 0.0 10261123
14:00+23с34355 0.0 10251618
17:00+25ссз44355 0.0 10251682
20:00+23сз35490 0.0 1024206
20 июня, вс
вс2023:00+18сз22630 0.0 102417
02:00+16зсз22700 0.0 102424
05:00+15зсз37780 0.0 1024125
08:00+20зсз610690 0.0 1023362
11:00+26сз78560 0.0 10221104
14:00+29сз78422 0.0 10202430
17:00+30ссз78384 0.0 10192481
20:00+24с4106493 0.0 1020410